Regional Weather Roundup
Issued by NWS

Home | Current Version | Previous Version | Graphics & Text | Print | Product List | Glossary On
Versions: 1 2 3 4 5 6 7 8 9 10 11 12 13 14 15 16 17 18 19 20 21 22 23 24 25 26 27 28 29 30 31 32 33 34 35 36 37 38 39 40 41 42 43 44 45 46 47 48 49 50
000
ASUS43 KLSX 291359
RWRMO

WEATHER SUMMARY FOR MISSOURI
NATIONAL WEATHER SERVICE SPRINGFIELD MO
800 AM CST THU JAN 29 2015

NOTE: "FAIR" INDICATES FEW OR NO CLOUDS BELOW 12,000 FEET WITH NO
       SIGNIFICANT WEATHER AND/OR OBSTRUCTIONS TO VISIBILITY.
       CURRENT SKY AND/OR WEATHER CONDITIONS ARE NOT AVAILABLE FOR
       CHILLICOTHE AND FARMINGTON.

MOZ001>031-035>038-043-044-053-054-291500-
...NORTHERN AND WESTERN MISSOURI...

CITY           SKY/WX    TMP DP  RH WIND       PRES   REMARKS
KANSAS CTY INT CLOUDY    37  29  72 N20G31    30.23R WCI  27
KANSAS C DTWN  CLOUDY    39  29  67 N15G28    30.23R
LEE`S SUMMIT   CLOUDY    38  29  70 N24G36    30.21R WCI  27
ST JOSEPH      CLOUDY    38  27  64 N23G32    30.25R WCI  27
CHILLICOTHE      N/A     39  31  72 NW18G26   30.18R WCI  30
KIRKSVILLE     CLOUDY    36  33  89 NW16G25   30.10R WCI  26

$$
MOZ066>068-077>081-088>096-101>105-291500-
...SOUTHWEST MISSOURI...

CITY           SKY/WX    TMP DP  RH WIND       PRES   REMARKS
SPRINGFIELD    CLOUDY    45  36  70 N15       30.12R
JOPLIN         CLOUDY    43  34  70 N25G32    30.22R

$$
MOZ032>034-039>042-045>050-055>058-069>072-291500-
...CENTRAL MISSOURI...

CITY           SKY/WX    TMP DP  RH WIND       PRES   REMARKS
COLUMBIA       CLOUDY    40  32  73 NW20G29   30.11R
JEFFERSON CITY CLOUDY    41  32  70 NW16G28   30.13R
ROLLA          CLOUDY    40  32  73 NW21G30   30.07R
SEDALIA        CLOUDY    39  31  72 NW21G33   30.18R WCI  29
OSAGE BEACH    CLOUDY    43  32  65 NW15G23   30.13R

$$
MOZ051-052-059>065-291500-
...EAST CENTRAL MISSOURI...

CITY           SKY/WX    TMP DP  RH WIND       PRES   REMARKS
ST LOUIS INTL  CLOUDY    42  32  67 NW18G31   30.02R
SPIRIT OF STL  CLOUDY    40  31  70 NW18G26   30.05R
ST CHARLES     CLOUDY    40  32  73 NW21G32   30.03R

$$
MOZ072>076-082>087-097>100-106>115-291500-
...SOUTH CENTRAL AND SOUTHEAST MISSOURI...

CITY           SKY/WX    TMP DP  RH WIND       PRES   REMARKS
CAPE GIRARDEAU NOT AVBL
FARMINGTON     CLOUDY    45  34  65 NW14G21   30.03R
POPLAR BLUFF   CLEAR     50  40  68 W6        29.98R
WEST PLAINS    CLEAR     46  36  68 NW20G28   30.06R

$$



USA.gov is the U.S. government's official web portal to all federal, state and local government web resources and services.